Weather History for CXIB - October, 2013

Change the Weather History Date:

Monday, October 28, 2013

  Actual Average Record
Temperature  
Mean Temperature 42 °F -  
Max Temperature 49 °F - - ()
Min Temperature 36 °F - - ()
Degree Days  
Heating Degree Days 22    
Moisture  
Dew Point 36 °F    
Average Humidity 81    
Maximum Humidity 95    
Minimum Humidity 61    
Precipitation  
Precipitation 0.01 in - - ()
Sea Level Pressure  
Sea Level Pressure 29.85 in    
Wind  
Wind Speed 3 mph ()    
Max Wind Speed 10 mph    
Max Gust Speed 29 mph    
T = Trace of Precipitation, MM = Missing Value Source: Averaged Metar Reports

Daily Weather History Graph

Daily Weather History Graph

Search for Another Location

Airport or City:

Trip Planner

Search our weather history database for the weather conditions in past years. The results will help you decide how hot, cold, wet, or windy it might be!

Date:

Astronomy

Oct. 28, 2013 Rise Set
Actual Time 7:38 AM ADT 5:52 PM ADT
Civil Twilight 7:06 AM ADT 6:23 PM ADT
Nautical Twilight 6:31 AM ADT 6:58 PM ADT
Astronomical Twilight 5:56 AM ADT 7:33 PM ADT
Moon 1:04 AM ADT (10/28) 2:50 PM ADT (10/28)
Length of Visible Light 11h 16m
Length of Day
10h 14m
Waning Crescent, 35% of the Moon is Illuminated
Oct 28
Waning Crescent
Nov 3
New
Nov 10
First Quarter
Nov 17
Full
Nov 25
Last Quarter

Hourly Weather History & Observations

Time (ADT) Temp. Windchill Dew Point Humidity Pressure Visibility Wind Dir Wind Speed Gust Speed Precip Events Conditions
12:00 AM 41.9 °F - 39.2 °F 90% 29.75 in - West 1.2 mph - N/A   Unknown
1:00 AM 41.0 °F - 37.6 °F 88% 29.76 in - ESE 1.2 mph - N/A   Unknown
2:00 AM 39.0 °F - 37.0 °F 93% 29.77 in - WSW 1.2 mph - N/A   Unknown
3:00 AM 40 °F - 38 °F 92% 29.77 in - West 1.2 mph - -  
3:00 AM 39.9 °F - 38.5 °F 95% 29.77 in - West 1.2 mph - N/A   Unknown
4:00 AM 39.9 °F - 38.3 °F 94% 29.78 in - WSW 1.2 mph - N/A   Unknown
5:00 AM 40.3 °F - 38.7 °F 94% 29.78 in - SW 1.2 mph - N/A   Unknown
6:00 AM 39.0 °F - 37.6 °F 95% 29.78 in - WSW 2.3 mph - N/A   Unknown
7:00 AM 40.1 °F 38.0 °F 38.1 °F 93% 29.79 in - WSW 3.5 mph - N/A   Unknown
8:00 AM 36.3 °F 33.7 °F 34.7 °F 94% 29.80 in - WSW 3.5 mph - N/A   Unknown
9:00 AM 43 °F - 40 °F 85% 29.82 in - SW 2.3 mph - -  
9:00 AM 42.6 °F - 40.1 °F 91% 29.82 in - SW 2.3 mph - N/A   Unknown
10:00 AM 47.7 °F - 40.5 °F 76% 29.81 in - SW 3.5 mph - N/A   Unknown
11:00 AM 48.9 °F - 38.8 °F 68% 29.81 in - WSW 5.8 mph - N/A   Unknown
12:00 PM 46.0 °F 42.5 °F 36.7 °F 70% 29.83 in - WSW 6.9 mph - N/A   Unknown
1:00 PM 48.6 °F - 35.8 °F 61% 29.81 in - WSW 6.9 mph 18.4 mph N/A   Unknown
2:00 PM 44.1 °F 39.5 °F 36.1 °F 74% 29.83 in - WSW 8.1 mph - N/A   Unknown
3:00 PM 45.1 °F 41.4 °F 36.1 °F 71% 29.84 in - West 6.9 mph - 0.01 in   Unknown
4:00 PM 43.3 °F 38.1 °F 31.3 °F 62% 29.86 in - WSW 9.2 mph 19.6 mph N/A   Unknown
5:00 PM 40.6 °F 34.3 °F 34.2 °F 78% 29.89 in - West 10.4 mph 28.8 mph N/A   Unknown
6:00 PM 41.2 °F 36.6 °F 31.6 °F 69% 29.91 in - West 6.9 mph - N/A   Unknown
7:00 PM 41.5 °F 37.8 °F 31.1 °F 66% 29.95 in - West 5.8 mph - N/A   Unknown
8:00 PM 40.6 °F 35.4 °F 33.4 °F 75% 29.98 in - SW 8.1 mph - N/A   Unknown
9:00 PM 38 °F - 34 °F 80% 29.99 in - SSW 1.2 mph - -  
9:00 PM 38.1 °F - 34.0 °F 85% 29.99 in - SSW 1.2 mph - N/A   Unknown
10:00 PM 40.3 °F 38.2 °F 34.7 °F 80% 30.02 in - West 3.5 mph - N/A   Unknown
11:00 PM 39.6 °F 37.4 °F 33.6 °F 79% 30.04 in - WNW 3.5 mph - N/A   Unknown